Location: Unspecified
(0.0000°N, 0.0000°E)
Time: 04:14:07
(UTC+00:00)

COSMO-SKYMED 1 - Visible Passes

Search period start: 24 October 2017 00:00
Search period end: 03 November 2017 00:00
Orbit: 621 x 623 km, 97.9° (Epoch: 23 October)

Date Brightness Start Highest point End Pass type
(mag) Time Alt. Az. Time Alt. Az. Time Alt. Az.
24 Oct 4.5 18:10:02 10° NNW 18:13:55 33° WNW 18:17:51 10° SW visible
25 Oct 5.7 04:45:03 10° ESE 04:47:06 13° ENE 04:49:07 10° NE visible
25 Oct 5.4 18:28:52 10° NNW 18:31:54 19° WNW 18:34:58 10° WSW visible
26 Oct 5.2 05:01:37 10° SE 05:05:04 23° ENE 05:08:31 10° NNE visible
26 Oct 6.0 18:49:15 10° WNW 18:49:53 10° WNW 18:50:31 10° W visible
29 Oct 4.1 18:03:53 10° N 18:07:56 40° WNW 18:12:01 10° SSW visible
30 Oct 5.9 04:40:10 10° E 04:41:06 11° ENE 04:42:03 10° ENE visible
30 Oct 5.2 18:22:31 10° NNW 18:25:55 23° WNW 18:29:20 10° SW visible
31 Oct 5.4 04:55:58 10° SE 04:59:05 19° ENE 05:02:11 10° NNE visible
31 Oct 5.7 18:41:58 10° NW 18:43:53 13° WNW 18:45:50 10° WSW visible
01 Nov 4.4 05:13:07 10° SE 05:17:04 34° ENE 05:20:59 10° NNE visible
